SCP
1 1 1 1 1 1 0 0 0 1 1 1 1 1 0 0 0 0 0 0 0 0 0 0 0 0 0 0 0 0 0 0 0 0 0 0 0 0 0 0 0 0 0
1 1 1 1 0 0 0 0 0 0 0 0 0 0 0 0 0 0 0 0 0 0 0 0 0 0 0 0 0 0 0 0 0 0 0 0 0 0 0 0 0 0 0
0 0 0 0 0 0 0 0 0 0 0 0 0 0 0 0 0 0 0 0 0 0 0 0 0 0 0 0 0 0 0 0 0 0 0 0 0 0 0 0 0 0 0
0 0 0 0 0 0 0 0 0 0 0 0 0 0 0 0 0 0 0 0 0 0 0 0 0 0 0 0 0 0 0 0 0 0 0 0 0 0 0 0 0 0 0
0 0 0 0 0 0 0 0 0 0 0 0 0 0 0 0 0 0 0 0 0 0 0 0 0 0 0 0 0 0 0 0 0 0 0 0 0 0 0 0 0 0 0
0 0 0 0 0 0 0 0 0 0 0 0 0 0 0 0 0 0 0 0 0 0 0 0 0 0 0 0 0 0 0 0 0 0 0 0 0 0 0 0 0 0 0
0 0 0 0 0 0 0 0 0 0 0 0 0 0 0 0 0 0 0 0 0 0 0 0 0 0 0 0 0 0 0 0 0 0 0 0 0 0 0 0 0 0 0
0 0 0 0 0 0 0 0 0 0 0 0 0 0 0 0 0 0 0 0 0 0 0 0 0 0 0 0 0 0 0 0 0 0 0 0 0 0 0 0 0 0 0
0 0 0 0 0 0 0 0 0 0 0 0 0 0 0 0 0 0 0 0 0 0 0 0 0 0 0 0 0 0 0 0 0 0 0 0 0 0 0 0 0 0 0
0 0 0 0 0 0 0 0 0 0 0 0 0 0 0 0 0 0 0 0 0 0 0 0 0 0 0 0 0 0 0 0 0 0 0 0 0 0 0 0 0 0 0
0 0 0 0 0 0 0 0 0 0 0 0 0 0 0 0 0 0 0 0 0 0 0 0 0 0 0 0 0 0 0 0 0 0 0 0 0 0 0 0 0 0 0
0 0 0 0 0 0 0 0 0 0 0 0 0 0 0 0 0 0 0 0 0 0 0 0 0 0 0 0 0 0 0 0 0 0 0 0 0 0 0 0 0 0 0
0 0 0 0 0 0 0 0 0 0 0 0 0 0 0 0 0 0 0 0 0 0 0 0 0 0 0 0 0 0 0 0 0 0 0 0 0 0 0 0 0 0 0
0 0 0 0 0 0 0 0 0 0 0 0 0 0 0 0 0 0 0 0 0 0 0 0 0 0 0 0 0 0 0 0 0 0 0 0 0 0 0 0 0 0 0
0 0 0 0 0 0 0 0 0 0 0 0 0 0 0 0 0 0 0 0 0 0 0 0 0 0 0 0 0 0 0 0 0 0 0 0 0 0 0 0 0 0 0
0 0 0 0 0 0 0 0 0 0 0 0 0 0 0 0 0 0 0 0 0 0 0 0 0 0 0 0 0 0 0 0 0 0 0 0 0 0 0 0 0 0 0
0 0 0 0 0 0 0 0 0 0 0 0 0 0 0 0 0 0 0 0 0 0 0 0 0 0 0 0 0 0 0 0 0 0 0 0 0 0 0 0 0 0 0
0 0 0 0 0 0 0 0 0 0 0 0 0 0 0 0 0 0 0 0 0 0 0 0 0 0 0 0 0 0 0 0 0 0 0 0 0 0 0 0 0 0 0
0 0 0 0 0 0 0 0 0 0 0 0 0 0 0 0 0 0 0 0 0 0 0 0 0 0 0 0 0 0 0 0 0 0 0 0 0 0 0 0 0 0 0
0 0 0 0 0 0 0 0 0 0 0 0 0 0 0 0 0 0 0 0 0 0 0 0 0 0 0 0 0 0 0 0 0 0 0 0 0 0 0 0 0 0 0
0 0 0 0 0 0 0 0 0 0 0 0 0 0 0 0 0 0 0 0 0 0 0 0 0 0 0 0 0 0 0 0 0 0 0 0 0 0 0 0 0 0 0
0 0 0 0 0 0 0 0 0 0 0 0 0 0 0 0 0 0 0 0 0 0 0 0 0 0 0 0 0 0 0 0 0 0 0 0 0 0 0 0 0 0 0
0 0 0 0 0 0 0 0 0 0 0 0 0 0 0 0 0 0 0 0 0 0 0 0 0 0 0 0 0 0 0 0 0 0 0 0 0 0 0 0 0 0 0
0 0 0 0 0 0 0 0 0 0 0 0 0 0 0 0 0 0 0 0 0 0 0 0 0 0 0 0 0 0 0 0 0 0 0 0 0 0 0 0 0 0 0
0 0 0 0 0 0 0 0 0 0 0 0 0 0 0 0 0 0 0 0 0 0 0 0 0 0 0 0 0 0 0 0 0 0 0 0 0 0 0 0 0 0 0
0 0 0 0 0 0 0 0 0 0 0 0 0 0 0 0 0 0 0 0 0 0 0 0 0 0 0 0 0 0 0 0 0 0 0 0 0 0 0 0 0 0 0
Wind_Speed
7 7 7 7 7 6 5 5 4 2 0 1 2 2 2 2 1 2 2 3 4 4 4 3 3 3 3 3 3 2 2 2 1 0 2 3 3 3 3 3 3 3 4
7 8 9 8 7 6 6 5 4 2 1 0 1 1 1 1 1 1 2 2 2 2 3 4 4 4 3 3 3 3 2 1 2 2 0 2 3 2 1 1 1 2 2
5 6 6 7 7 6 5 5 5 4 3 2 1 1 1 0 1 0 1 1 1 1 1 2 3 3 3 3 4 4 4 3 2 2 3 2 2 2 2 2 1 1 1
4 3 4 5 4 4 4 5 4 4 5 5 3 2 2 1 1 1 1 1 2 1 1 0 1 2 2 3 3 4 3 3 3 2 2 2 2 2 2 2 2 2 2
2 2 2 2 2 3 3 3 3 3 3 4 4 3 3 1 1 1 2 2 2 2 2 0 1 2 2 3 3 3 4 3 3 3 2 2 2 2 3 4 3 2 3
1 1 2 1 1 1 1 1 1 1 1 1 2 3 3 1 1 1 2 1 1 1 1 1 0 1 2 3 3 4 5 5 4 4 3 4 3 4 4 5 4 4 3
2 2 3 3 3 2 2 2 1 2 2 1 1 1 2 2 2 1 1 1 1 1 2 1 1 2 2 3 3 3 4 5 5 5 5 5 4 3 4 4 4 4 3
3 4 5 5 4 4 4 4 3 4 3 3 3 3 3 2 2 3 3 2 2 3 3 3 3 3 3 3 3 2 4 4 5 6 6 5 5 5 5 4 3 3 3
4 5 5 5 5 5 5 5 5 5 5 5 5 4 4 4 4 4 4 3 4 4 4 4 4 4 4 4 3 3 4 4 5 6 6 5 5 5 5 5 5 4 4
5 5 5 5 5 5 5 5 5 6 6 6 5 5 5 5 5 4 5 5 5 5 5 5 5 4 4 4 4 4 4 5 5 5 6 6 5 5 5 6 5 6 5
6 6 5 5 5 5 5 5 6 6 6 7 7 6 7 7 6 6 7 7 6 6 6 6 6 6 6 5 4 5 5 6 6 6 6 7 7 6 6 6 5 6 6
6 6 6 6 6 6 6 6 7 7 8 8 8 8 8 7 7 7 8 7 7 7 7 7 7 7 7 6 6 7 7 7 7 7 7 8 6 7 6 6 7 6 7
6 6 6 6 7 7 8 8 8 8 9 8 8 8 9 8 9 9 9 8 8 8 8 7 8 8 8 7 7 8 8 8 8 8 8 8 8 8 7 7 7 6 6
7 7 7 8 8 8 8 9 9 9 9 8 8 9 10 10 10 10 9 9 9 9 9 9 9 9 8 8 8 8 8 9 9 8 8 9 9 9 8 8 8 7 7
9 9 8 9 9 9 9 9 9 9 9 9 9 10 10 9 9 9 9 8 8 10 9 9 9 9 8 8 9 9 9 9 9 9 9 9 11 12 10 8 8 8 7
9 10 10 10 10 10 10 10 10 10 9 9 11 11 10 10 9 9 9 8 9 9 8 9 9 9 8 10 13 11 8 8 9 9 9 9 11 13 14 14 13 12 10
10 11 10 10 11 11 11 10 11 10 10 10 11 11 11 11 10 11 9 9 9 9 9 9 9 10 11 14 14 15 9 9 9 9 9 8 8 10 9 11 13 14 15
10 11 10 10 11 11 11 11 11 11 11 11 11 11 11 11 10 9 9 10 8 8 8 8 9 9 11 14 14 14 10 9 9 10 10 9 9 8 9 9 9 9 10
11 10 10 12 11 12 12 11 11 11 11 12 11 11 10 11 10 10 10 9 8 8 7 7 8 9 10 13 13 12 7 7 9 9 9 10 10 11 12 10 9 8 8
10 10 10 11 11 12 11 11 12 12 12 12 12 11 10 10 11 11 10 8 7 8 7 7 7 9 9 11 13 12 6 7 7 7 8 12 12 12 12 10 10 10 8
12 11 11 11 12 12 12 12 13 13 13 12 12 11 10 10 10 10 8 7 7 7 7 7 7 8 9 11 12 12 7 7 7 7 6 7 11 13 13 12 9 10 8
11 11 11 12 12 12 11 13 14 13 13 13 13 12 10 10 9 7 7 6 6 6 7 7 7 6 7 8 9 11 11 9 8 7 6 6 10 11 11 10 9 10 8
11 11 12 13 13 12 11 13 14 13 13 13 12 11 11 9 8 7 7 6 5 5 5 5 6 6 4 5 9 10 11 11 8 6 8 8 9 8 7 9 10 9 6
11 11 12 14 14 13 13 13 14 13 13 13 11 10 9 8 7 6 5 5 5 5 5 5 5 5 4 4 4 4 4 7 7 6 6 7 8 6 6 6 7 6 6
10 10 12 13 15 15 14 14 13 13 12 12 10 9 8 7 6 5 5 6 5 5 5 5 5 5 5 5 6 4 4 4 4 3 2 3 3 4 4 4 4 5 6
11 12 13 14 14 14 14 14 12 12 11 10 8 7 6 6 5 5 5 5 6 7 8 9 7 5 6 6 5 6 6 5 4 3 2 3 3 4 4 4 4 5 6
Wind_Direction
34 36 44 50 53 51 56 57 51 16 355 145 212 208 216 227 217 254 243 216 214 204 197 206 198 199 201 209 201 181 184 198 174 247 311 309 289 274 259 255 244 241 243
40 34 35 42 47 45 44 55 41 10 347 286 222 179 172 173 167 255 264 231 216 194 194 193 192 195 198 200 202 180 168 185 162 155 86 332 334 333 331 301 254 256 253
49 31 32 31 40 42 40 51 41 25 12 41 67 45 36 27 61 299 280 315 320 202 199 193 195 199 190 203 209 194 177 189 198 184 165 176 245 301 315 323 316 307 289
45 35 35 32 35 35 42 49 45 34 35 39 53 81 75 51 355 292 301 358 26 40 47 186 215 209 197 207 216 199 189 176 193 206 209 201 182 203 298 311 311 304 281
35 30 22 27 32 39 43 38 47 35 38 53 61 70 74 64 358 359 22 21 19 28 22 348 218 226 216 214 216 201 198 194 191 189 185 199 215 212 220 267 295 309 286
359 350 326 327 326 4 6 305 56 32 33 79 96 105 110 105 58 15 6 348 329 330 339 336 286 255 248 238 228 218 212 211 209 203 193 185 188 199 207 235 256 275 280
310 297 279 273 271 270 269 272 283 286 286 272 209 175 177 179 188 210 229 249 272 275 290 298 269 255 251 248 234 224 225 217 215 213 214 213 213 195 195 219 243 257 273
279 267 262 260 261 262 261 255 247 253 258 253 247 237 222 210 220 220 218 223 230 243 253 259 260 259 255 251 237 231 233 224 224 227 222 222 224 212 206 205 211 247 258
280 276 276 272 269 271 270 264 262 262 260 254 252 250 240 227 230 232 228 236 241 245 245 249 253 258 258 252 241 236 241 236 233 234 230 230 229 220 219 215 208 215 246
292 290 292 293 287 280 279 281 267 263 266 268 263 259 247 241 237 232 234 236 241 244 250 253 252 253 252 250 243 242 242 239 240 236 234 233 231 226 221 218 217 216 226
295 292 292 289 286 285 278 274 273 269 269 265 261 259 256 249 242 237 239 238 239 238 238 240 245 247 247 244 241 244 246 244 246 245 239 239 230 226 223 217 215 218 220
292 288 289 294 294 289 283 275 270 267 264 261 259 256 256 254 250 247 246 242 241 240 237 236 239 244 246 243 239 245 246 242 246 248 245 246 240 231 225 217 216 217 217
299 296 296 295 291 287 283 277 272 267 265 263 261 260 259 254 250 248 247 243 240 242 238 232 233 237 239 240 240 240 243 242 243 244 243 244 237 236 230 223 220 219 220
290 290 289 288 287 285 283 282 280 276 275 271 267 264 261 256 253 251 248 245 241 240 240 236 233 234 235 237 241 241 243 243 244 243 243 241 234 235 233 228 223 218 215
294 294 291 289 289 289 287 284 283 282 280 278 274 269 267 263 258 253 251 250 247 245 241 240 238 235 234 236 237 238 243 243 245 246 244 242 241 239 232 228 219 212 211
296 297 297 295 293 291 290 287 285 282 280 278 275 274 271 266 261 256 252 250 247 246 243 239 237 237 240 239 237 237 240 240 243 248 247 246 250 248 240 232 223 211 210
298 296 295 292 291 291 290 287 284 285 283 278 277 276 273 270 264 263 260 254 250 244 241 241 238 238 242 243 246 247 244 240 240 242 245 247 242 235 237 234 229 223 220
296 296 296 294 293 292 292 288 289 289 287 284 283 281 276 273 269 266 262 258 253 245 240 241 240 240 245 244 245 249 249 244 242 239 239 240 242 236 228 229 229 227 225
296 296 295 297 297 297 298 298 297 295 292 289 286 284 282 278 273 268 264 261 256 248 242 241 241 242 249 249 247 245 243 243 245 242 239 236 239 233 221 221 225 226 234
302 301 303 305 305 305 307 305 302 300 296 294 291 288 283 279 275 268 264 261 254 252 250 248 243 242 248 251 247 242 235 240 244 245 242 237 235 229 215 218 218 221 224
302 304 307 309 307 308 309 306 304 301 299 298 294 289 284 279 274 269 263 258 254 254 252 253 253 248 247 252 249 241 226 231 238 241 240 236 229 225 218 215 218 220 208
308 309 310 311 309 308 307 307 305 303 301 299 295 290 286 283 285 275 270 261 250 251 253 254 259 256 249 245 247 241 231 226 232 240 240 234 226 224 219 215 215 206 198
308 311 313 312 312 312 311 308 306 306 304 301 298 293 289 283 279 275 273 268 252 243 247 246 253 261 255 244 242 246 241 234 231 237 236 230 222 220 219 215 202 194 194
313 315 316 317 317 317 315 308 307 308 306 304 302 298 294 289 283 274 265 258 249 243 242 244 249 256 259 251 243 240 241 240 234 235 237 228 218 219 214 200 193 195 192
315 316 318 317 318 319 317 314 313 313 311 308 305 302 297 290 290 285 271 260 247 235 237 244 242 246 255 251 231 224 228 226 220 207 209 208 199 198 196 191 188 185 181
319 320 320 320 320 320 320 320 320 319 316 314 313 309 305 299 294 294 294 272 257 257 248 245 244 244 245 260 244 235 233 225 195 185 199 207 203 192 188 180 178 179 177